Location: Maiden
(35.5760°N, 81.2120°W)
Time: 19:33:39
(UTC-04:00)

Cosmos 1825 Rocket - Pass Details

Date: 14 June 2018
Orbit: 604 x 631 km, 82.5° (Epoch: 19 October)

Event Time Altitude Azimuth Distance (km) Brightness Sun altitude
Exits shadow 22:19:16 31° 131° (SE) 1,116 4.3 -16.5°
Maximum altitude 22:20:38 39° 92° (E) 950 4.1 -16.7°
Drops below altitude 10° 22:24:48 10° 23° (NNE) 2,017 6.5 -17.3°
Sets 22:27:08 0° 16° (NNE) 2,928 7.5 -17.6°
